Showing default

OPS 4467 B, 813

Orbit data source: Space-Track

OPS 4467 B, 813 is an American payload satellite in SSO that was launched on Thu, 18 Jun 1964 UTC via a THOR SLV-2 AGENA D launch vehicle from the Air Force Western Test Range (AFWTR). Payloads include a variety of satellites, spacecraft, and rockets equipped with specific instruments for various scientific and technological missions. These include communications satellites like Starlink; space stations such as the ISS; scientific satellites like the Hubble; Earth observation satellites from companies like Planet Labs, Umbra, and HawkEye 360; GPS; miniature CubeSats for education and research; and military/defense satellites.

Loading next visibility...
OPS 4467 B details
Identifier
813, 1964-031B
Orbit
SSO
Last TLE update11 hours ago
Origin
Flag of USNRO/SAFSP (US)
ManufacturerRCA/East Windsor
MissionDefense Weather
Bus & MotorP35, Unknown motor
Mass50 kg wet, 50 kg dry
Launch date (UTC)
1964-06-18 (61 years ago)
Launch vehicle
THOR SLV-2 AGENA D
Launch site
Air Force Western Test Range (AFWTR)
Object type
Payload
Rocket body
Debris
Shape & HBRCyl, 0.6 m
Radar Cross Section0.377 m², Medium (>0.1 m² and < 1m²)

Expand to show TLE details & history

TLE from 11 hours ago
0 OPS 4467 B
1 00813U 64031B   25014.82645379  .00000139  00000-0  84651-4 0  9993
2 00813  99.7858 104.1900 0005327 179.9712 180.1464 14.23523318141178
Epoch: 2025-01-14T19:50Z
Definitive object data (Epoch: 2025-01-14T19:50:05.607Z)
Latitude-0.00002°
Longitude52.13907°
Altitude820.176 km
Speed7.441 km/s
True Right ascension06h 56m 45s
True Declination0° 00' 00"
Sunlit
Object was in full shadow at TLE epoch
Visualization TLE readout
Latitude-2.47989°
Longitude-127.77863°
Altitude812.876 km
Speed7.449 km/s
Apparent Right ascension19h 09m 38s
Apparent Declination-19° 57' 59"
Sunlit
Object is in daylight
Visualization observer readout
Local Sidereal Time07:28:03
Azimuth12.537° NNE
Elevation-69.663°
Doppler factor1
Orbital elements
Apogee altitude814.5 km
Perigee altitude806.841 km
Semi-major axis7,188.807 km
Eccentricity0.0005327
Inclination99.7858°
RAAN104.19°
Arg. of periapsis179.9712°
True anomaly180.14624°
Mean anomaly180.1464°
Eccentric anomaly180.14632°
Mean motion3.56088 °/min
BSTAR0.000084651
Orbital period101.1 mins
Loading maneuver chart data...
Loading historical data...
Loading historical data...
Loading historical data...
Loading historical data...
Loading historical data...
Loading historical data...
Loading historical data...
Other satellites on launch #31 in the year 1964 (1964-06-18 UTC)

OPS 4467 B Visibility forecast

Observer location: undefined°, undefined

Span
Click to sort rows by Start time (UTC) header in descending order
Start Az.
Max El. time (UTC)
Max El. Az.
Max El.
End time (UTC)
End Az.
9 mins2025-01-15 18:20:36.741Z26.961° NE2025-01-15 18:25:36.741Z111.152° ESE37.454°2025-01-15 18:29:36.741Z173.847° S
5 mins2025-01-15 20:02:36.741Z329.081° NNW2025-01-15 20:04:36.741Z300.683° NW19.702°2025-01-15 20:07:36.741Z259.537° W
9 mins2025-01-16 05:41:36.741Z162.808° S2025-01-16 05:45:36.741Z145.753° SSE44.889°2025-01-16 05:50:36.741Z345.516° N
|